Content
SEND FEEDBACK

Daily
Averages
Monthly
Summary
French Polynesia

FAAA, FRENCH POLYNESIA


Home > Oceania > French Polynesia
Elevation: 7 feet     Latitude: 17 33S     Longitude: 149 37W

WEATHER
 
SELECT A DAY
Number of Records: 208,679;   Date Range: 6/30/96 - 8/10/14
 
SHARE

PRINT THIS DATA

[ ← Previous Day ]
WEATHER ALMANAC - NOVEMBER 13, 2013
[ Next Day → ]
[ °C ]   °F
Weather ElementAverageHighLow
Temperature80.1 °F84.2 °F (11:30 am)78.8 °F (12:30 am)
Dewpoint70.6 °F71.6 °F (8:00 am)69.8 °F (12:30 am)
Humidity71.6 %78 % (7:30 pm)58 % (2:00 pm)
Barometer29.87 in29.92 in (8:00 am)29.83 in (1:30 am)
Wind Speed5.4 mph13.4 mph (11:00 pm)
Weather ElementAverage
Visibility7.5 mi
Wind DirectionSSW (194.1 °)

Weather ElementTotal
Precipitation---
Cooling Degree Days16.5 (Base 65)
Growing Degree Days31.5 (Base 50)
Averaged from 54 records on November 13, 2013
WEATHER CONDITIONS BREAKOUT
WIND DIRECTION BREAKOUT
WEATHER BY HOUR - NOVEMBER 13, 2013
[ °C ]   °F
Local TimeTemperatureDewpointHumidityBarometerVisibilityWind DirectionWind SpeedGust SpeedPrecipitationEventsConditions
12:30 AM78.8 °F69.8 °F74 %29.86 in6.2 miCalmMostly Cloudy
1:00 AM78.8 °F69.8 °F74 %29.86 in6.2 miCalmMostly Cloudy
1:30 AM78.8 °F69.8 °F74 %29.83 in6.2 miVariable3.5 mphMostly Cloudy
2:00 AM79.0 °F70.0 °F67 %29.85 in12.0 miNNE (30°)8.9 mphMostly Cloudy
2:00 AM78.8 °F69.8 °F74 %29.83 in6.2 miNNE (30°)4.6 mphMostly Cloudy
2:30 AM78.8 °F69.8 °F74 %29.83 in6.2 miNorth (360°)3.5 mphPartly Cloudy
3:00 AM78.8 °F69.8 °F74 %29.83 in6.2 miCalmPartly Cloudy
3:30 AM78.8 °F69.8 °F74 %29.83 in6.2 miSSE (150°)3.5 mphOvercast
4:00 AM78.8 °F69.8 °F74 %29.86 in6.2 miSSE (150°)3.5 mphOvercast
4:30 AM78.8 °F69.8 °F74 %29.86 in6.2 miSSE (150°)3.5 mphOvercast
5:00 AM79.0 °F70.0 °F66 %29.88 in37.0 miSSE (160°)2.3 mphClear
5:00 AM78.8 °F69.8 °F74 %29.86 in6.2 miVariable2.3 mphOvercast
5:30 AM78.8 °F69.8 °F74 %29.89 in6.2 miNE (50°)4.6 mphOvercast
6:00 AM78.8 °F69.8 °F74 %29.89 in6.2 miENE (70°)4.6 mphMostly Cloudy
6:30 AM78.8 °F69.8 °F74 %29.89 in6.2 miENE (60°)3.5 mphMostly Cloudy
7:00 AM80.6 °F69.8 °F70 %29.89 in6.2 miCalmMostly Cloudy
7:30 AM80.6 °F69.8 °F70 %29.89 in6.2 miSSW (210°)3.5 mphMostly Cloudy
8:00 AM81.0 °F71.0 °F65 %29.92 in12.0 miWSW (240°)6.9 mphPartly Cloudy
8:00 AM80.6 °F71.6 °F74 %29.92 in6.2 miWSW (240°)6.9 mphMostly Cloudy
8:30 AM82.4 °F71.6 °F70 %29.92 in6.2 miSW (230°)4.6 mphMostly Cloudy
9:00 AM82.4 °F71.6 °F70 %29.92 in6.2 miWest (280°)2.3 mphMostly Cloudy
9:30 AM82.4 °F71.6 °F70 %29.92 in6.2 miCalmMostly Cloudy
10:30 AM82.4 °F71.6 °F70 %29.89 in6.2 miNNW (340°)9.2 mphMostly Cloudy
11:00 AM83.0 °F71.0 °F59 %29.91 in12.0 miNNW (330°)9.2 mphMostly Cloudy
11:00 AM82.4 °F71.6 °F70 %29.89 in6.2 miNNW (330°)9.2 mphMostly Cloudy
11:30 AM84.2 °F71.6 °F66 %29.89 in6.2 miWNW (300°)8.1 mphMostly Cloudy
12:00 PM82.4 °F71.6 °F70 %29.89 in6.2 miWest (260°)8.1 mphMostly Cloudy
12:30 PM82.4 °F71.6 °F70 %29.86 in6.2 miWNW (290°)9.2 mphMostly Cloudy
1:00 PM82.4 °F71.6 °F70 %29.86 in6.2 miNW (310°)5.8 mphOvercast
1:30 PM82.4 °F71.6 °F70 %29.86 in6.2 miNNW (340°)6.9 mphOvercast
2:00 PM82.0 °F70.0 °F58 %29.86 in9.0 miNNW (340°)8.1 mphOvercast
2:00 PM82.4 °F69.8 °F66 %29.83 in6.2 miNNW (340°)8.1 mphOvercast
2:30 PM80.6 °F69.8 °F70 %29.83 in6.2 miENE (60°)5.8 mphOvercast
3:00 PM80.6 °F71.6 °F74 %29.83 in6.2 miNE (50°)6.9 mphMostly Cloudy
3:30 PM80.6 °F71.6 °F74 %29.83 in6.2 miNNE (30°)4.6 mphMostly Cloudy
4:00 PM80.6 °F69.8 °F70 %29.83 in6.2 miSW (230°)8.1 mphMostly Cloudy
4:30 PM80.6 °F69.8 °F70 %29.83 in6.2 miWSW (240°)6.9 mphMostly Cloudy
5:00 PM80.0 °F70.0 °F65 %29.86 in12.0 miWNW (300°)4.6 mphMostly Cloudy
5:00 PM80.6 °F69.8 °F70 %29.86 in6.2 miWNW (300°)4.6 mphMostly Cloudy
5:30 PM80.6 °F71.6 °F74 %29.86 in6.2 miNNW (340°)8.1 mphMostly Cloudy
6:00 PM78.8 °F69.8 °F74 %29.86 in6.2 miNNE (20°)4.6 mphMostly Cloudy
6:30 PM78.8 °F69.8 °F74 %29.86 in6.2 miCalmMostly Cloudy
7:00 PM78.8 °F69.8 °F74 %29.89 in6.2 miVariable2.3 mphMostly Cloudy
7:30 PM78.8 °F71.6 °F78 %29.89 in6.2 miNW (310°)6.9 mphMostly Cloudy
8:00 PM79.0 °F70.0 °F68 %29.90 in12.0 miNW (310°)8.1 mphOvercast
8:00 PM78.8 °F69.8 °F74 %29.89 in6.2 miNW (310°)8.1 mphOvercast
8:30 PM78.8 °F71.6 °F78 %29.89 in6.2 miNW (310°)9.2 mphMostly Cloudy
9:00 PM78.8 °F71.6 °F78 %29.89 in6.2 miWNW (290°)5.8 mphMostly Cloudy
9:30 PM78.8 °F71.6 °F78 %29.89 in6.2 miWest (280°)6.9 mphOvercast
10:00 PM78.8 °F71.6 °F78 %29.89 in6.2 miWest (270°)4.6 mphMostly Cloudy
10:30 PM78.8 °F69.8 °F74 %29.89 in6.2 miWest (280°)3.5 mphMostly Cloudy
11:00 PM79.0 °F71.0 °F69 %29.90 in12.0 miNNW (330°)13.4 mphMostly Cloudy
11:00 PM78.8 °F69.8 °F74 %29.89 in6.2 miNNW (330°)6.9 mphMostly Cloudy
11:30 PM78.8 °F71.6 °F78 %29.89 in6.2 miWNW (300°)8.1 mphMostly Cloudy
Hourly data recorded from NTAA, located miles away from Faaa, French Polynesia







STORIES FROM OUR PARTNERS